Weather WX

World > North America > United States > Mississippi

Ocean Springs, Mississippi Regional Weather

Lat: 30.41N, Lon: 88.8W
Wx Zone: MSZ082
Warning FLW WEATHER ALERT - (More Info. Click Here) Warning
Feedback

Ocean Springs, MS Regional Weather

Expires:201906182100;;695520
ASUS44 KJAN 182010
RWRMS 

MISSISSIPPI HOURLY WEATHER ROUNDUP
NATIONAL WEATHER SERVICE JACKSON MS
300 PM CDT TUE JUN 18 2019

NOTE: "FAIR: INDICATES FEW OR NO CLOUDS BELOW 12,000 FEET WITH NO
SIGNIFICANT WEATHER AND/OR OBSTRUCTIONS TO VISIBILITY.


MSZ080>082-182100-
COASTAL MISSISSIPPI
  
CITY           SKY/WX    TMP DP  RH WIND       PRES   REMARKS
BILOXI         FAIR      86  73  65 W8        29.90F HX  93           
PASCAGOULA     PTSUNNY   84  74  71 SW6       29.92F HX  91           
GULFPORT       PTSUNNY   87  73  62 SW10      29.89F HX  94           
$$


SKY/WX - Weather  TMP - Temperature  DP - Dew Point  RH - Relative Humidity
WIND - Wind Direction/Speed PRES - Barometric Pressure VSB - Visibility
WCI - Wind Chill Index E13G22 Wind - East Wind 13 mph/Gusts of 22 mph